Wetbulb
41.26 42.28 43.60 43.72 44.58 45.35 47.15 47.13 49.02 49.98 53.45 53.99 54.00 53.57 52.68 51.14 50.74 48.93 43.34 44.53 42.99 36.45 34.78 34.59 34.87 31.64 31.07 31.20 27.92 28.27 26.82 25.12 19.64 14.53 12.45 11.65 7.24 11.83 8.23 12.65 14.98 15.56 14.47 9.76 7.22 8.67 9.16 29.95 30.37 26.97 30.57 31.25 32.04 31.98
40.76 41.27 42.46 42.51 42.63 44.14 46.08 46.27 48.29 49.07 52.83 53.63 53.58 53.49 52.63 51.40 50.80 49.77 40.51 43.76 42.58 37.57 34.06 36.16 34.96 35.01 35.15 34.49 31.01 29.07 27.98 26.54 27.83 19.33 16.62 13.84 8.68 11.85 6.73 8.46 18.72 13.17 19.51 14.89 18.01 18.46 27.32 33.16 30.35 33.13 32.61 32.36 31.72 32.12
40.25 40.58 41.70 41.70 41.53 42.59 44.55 44.81 45.80 47.83 52.01 53.40 53.50 53.29 52.40 51.42 50.95 49.48 44.08 41.60 39.04 32.77 32.87 33.66 33.44 34.28 36.12 35.42 35.54 29.85 28.47 29.76 28.82 27.97 22.56 18.90 12.00 19.45 8.88 12.47 14.14 19.51 22.96 19.81 18.43 22.92 26.53 28.98 34.18 30.75 31.64 32.66 32.46 32.58
39.36 39.94 40.96 41.45 41.02 40.90 42.70 43.68 45.22 47.47 52.01 53.06 53.23 52.86 52.02 51.39 50.75 49.83 42.55 43.90 41.41 35.51 32.26 31.63 34.49 33.32 35.34 35.60 35.95 34.78 32.47 31.48 30.31 28.71 23.47 18.66 14.51 23.74 17.64 20.23 19.50 20.29 22.57 17.08 18.45 23.02 21.37 26.20 28.41 34.18 32.33 31.85 31.45 31.36
38.76 39.30 40.46 40.90 40.77 40.40 41.44 42.62 43.56 44.54 45.23 52.36 52.76 52.50 51.97 51.47 50.96 50.06 43.56 44.61 44.03 40.04 31.80 27.55 31.79 32.51 34.20 35.58 35.16 34.64 33.23 31.61 27.83 23.01 16.09 18.83 22.63 22.21 21.94 20.50 18.99 22.07 20.74 21.01 21.45 25.54 27.20 27.93 27.79 30.35 32.15 31.92 31.56 31.00
38.69 39.20 40.06 40.12 40.30 40.01 40.38 41.80 42.30 43.03 44.69 51.63 52.28 52.29 51.90 51.43 50.91 43.60 34.63 41.22 41.34 39.18 30.88 25.86 30.58 30.83 32.67 34.75 33.65 32.71 32.22 30.96 26.99 22.54 18.22 18.41 22.57 21.30 13.32 12.25 23.22 25.33 25.37 26.67 30.05 21.67 23.56 21.36 20.58 23.46 31.70 32.86 30.97 30.34
38.27 39.03 39.51 39.57 40.08 39.78 39.69 40.51 41.72 42.36 43.44 51.14 51.92 52.10 52.00 51.32 46.48 40.99 35.25 39.03 42.85 39.35 30.72 23.29 24.03 29.88 32.20 31.96 31.10 30.53 29.44 27.88 23.40 20.26 17.21 19.80 21.11 20.91 9.32 16.63 25.51 24.94 27.65 27.78 23.80 23.34 23.17 19.49 26.62 22.83 24.52 24.70 25.21 24.88
38.01 38.71 38.77 38.78 39.12 39.36 39.50 40.07 41.39 41.75 43.01 48.58 51.56 51.67 51.57 50.48 47.71 40.74 41.20 44.46 43.58 34.81 32.34 23.74 21.72 26.14 31.64 28.43 25.87 29.61 27.41 26.70 24.51 15.39 20.77 20.54 19.08 14.74 16.35 22.98 27.52 28.51 23.42 22.37 24.37 27.42 27.78 18.34 16.10 16.22 11.67 15.42 20.45 25.66
37.67 37.99 38.26 38.08 38.20 38.54 39.31 39.48 41.14 40.61 42.42 49.20 51.39 51.23 50.18 44.65 33.64 36.08 44.27 41.66 38.18 34.86 26.90 24.03 20.92 19.76 30.72 27.40 27.92 26.96 28.69 24.50 24.30 19.53 20.60 17.27 11.03 15.41 21.26 25.95 25.67 27.07 24.87 25.93 20.79 23.52 18.87 20.99 23.16 18.50 16.31 14.23 23.75 26.80
37.14 37.52 37.72 37.78 38.01 38.32 39.00 38.40 40.52 39.85 41.34 46.62 50.05 34.92 31.54 32.39 42.32 41.28 34.33 31.99 31.88 31.13 29.25 23.01 24.26 21.75 27.62 25.99 25.38 25.20 27.11 25.17 21.10 18.67 18.24 17.43 18.94 22.17 23.55 27.76 29.21 29.89 28.61 19.74 17.55 18.92 13.59 16.00 21.76 22.60 19.34 24.50 27.22 28.99
36.68 36.72 36.95 37.18 37.28 37.73 38.30 38.51 39.69 38.91 39.56 42.00 32.37 30.07 34.04 42.51 35.09 32.20 28.49 28.95 28.99 25.97 27.14 22.54 20.58 23.78 27.62 23.69 22.44 26.15 23.31 22.34 19.28 14.45 15.40 10.69 13.79 18.27 26.75 31.09 32.87 31.56 26.88 24.03 29.53 29.15 26.69 23.07 25.88 25.62 20.90 23.46 24.31 24.09
35.36 35.27 35.14 35.57 36.28 37.05 37.85 38.36 38.81 33.96 32.72 34.74 34.25 35.59 32.89 32.46 30.70 27.06 25.81 27.69 24.64 21.12 21.78 18.06 20.47 25.23 25.25 29.01 24.60 22.71 21.62 19.39 17.64 17.12 17.10 12.42 17.19 22.79 20.23 25.14 28.63 27.88 29.39 26.30 25.78 27.41 20.64 21.58 23.55 26.06 26.31 24.03 24.25 26.05
35.19 35.24 35.33 35.27 35.48 36.57 37.46 39.07 37.46 36.37 38.73 36.14 33.23 29.85 29.49 29.33 23.42 19.73 19.41 20.46 19.79 22.07 20.76 21.34 21.54 23.84 24.77 26.72 22.31 20.80 17.88 17.02 19.05 14.88 10.70 14.30 19.79 19.74 16.89 21.02 23.77 19.49 22.01 26.10 25.11 24.01 24.57 22.26 18.77 23.86 24.65 23.13 25.10 23.56
35.41 35.36 35.31 35.55 35.25 36.02 37.07 39.45 37.80 36.70 33.22 30.85 27.46 22.13 24.63 22.04 20.59 18.91 19.27 19.36 18.09 20.95 22.75 24.58 16.82 22.60 22.82 22.28 21.63 19.24 14.49 16.16 11.65 7.60 9.78 14.11 20.34 20.74 15.41 15.68 20.82 22.48 16.92 19.19 21.29 21.19 23.29 22.75 23.15 21.93 24.57 22.08 23.11 22.80
35.19 35.00 34.88 35.08 35.58 35.75 36.06 38.95 39.32 36.79 31.69 29.48 28.64 22.29 22.89 15.14 13.02 9.65 14.48 17.47 15.13 28.42 26.72 19.66 21.13 22.76 19.77 18.97 18.96 12.75 9.66 8.94 10.17 15.00 17.41 18.55 14.84 11.93 12.95 15.14 18.20 16.81 15.19 17.12 10.02 14.89 18.33 17.66 18.92 20.81 16.62 18.10 21.11 19.22
34.79 34.21 31.60 35.22 35.06 36.11 38.40 38.47 35.79 31.83 31.58 30.29 25.81 21.54 20.60 19.10 16.49 8.02 17.66 23.32 28.75 29.32 29.08 24.57 20.25 21.47 19.80 19.59 14.03 16.36 16.63 12.99 17.38 15.36 16.51 11.74 13.01 11.18 11.35 11.90 14.45 13.52 9.45 12.26 9.55 9.80 12.08 13.53 16.56 15.89 6.70 6.08 15.61 17.08
34.58 26.47 34.49 35.37 35.29 38.38 38.27 33.33 31.57 30.22 30.94 28.84 23.17 17.68 16.91 24.20 23.76 19.92 25.68 26.56 31.29 30.76 20.84 20.20 18.09 16.63 18.86 18.26 15.01 16.37 15.44 18.30 19.50 12.25 7.36 6.09 7.13 9.86 10.90 11.30 12.94 12.14 9.43 8.95 5.52 4.98 7.17 1.61 2.48 5.00 8.64 -0.04 0.24 3.95
29.27 29.91 36.56 36.28 36.86 33.64 31.76 31.84 29.99 26.71 22.71 23.50 21.58 14.31 6.84 17.08 24.42 25.69 26.05 30.32 30.97 26.41 23.57 23.44 18.59 12.17 15.41 14.90 15.33 17.19 13.76 11.24 8.64 6.83 6.01 2.92 1.68 4.59 6.72 8.54 10.93 11.25 10.32 8.27 6.38 3.85 1.98 2.94 6.58 9.28 5.22 1.45 -0.27 -2.14
30.11 31.07 37.00 36.55 34.19 31.67 29.06 27.59 28.33 21.45 21.72 22.53 12.91 10.94 12.63 21.18 21.69 29.19 30.94 31.81 25.78 26.86 25.94 23.79 23.28 20.98 15.44 7.97 4.84 -0.27 -1.40 1.85 0.01 3.59 4.61 3.01 1.83 3.54 5.94 5.41 6.10 7.24 7.82 10.20 9.72 8.04 6.02 4.78 4.92 4.16 4.20 4.54 5.06 -1.23
35.16 35.45 34.66 34.51 34.28 29.90 25.50 25.13 29.32 24.85 22.29 23.67 20.49 19.53 16.06 16.05 27.84 29.79 29.36 22.18 26.33 27.20 22.10 12.51 4.58 -2.11 2.60 -2.71 -4.38 -6.41 -4.17 -1.44 -3.36 0.80 3.74 4.68 3.46 5.76 7.41 4.99 4.78 4.14 7.38 10.91 10.31 9.45 8.31 7.49 5.92 5.78 6.43 4.41 7.02 5.34
33.14 32.84 33.15 30.90 27.32 24.24 21.27 21.67 23.13 24.00 25.62 23.82 22.89 18.14 24.87 28.12 27.10 27.01 20.25 15.77 13.38 -5.98 -5.25 -9.46 -9.64 -2.89 -3.92 -5.19 -7.37 -9.40 -5.01 -2.82 -2.91 -2.22 -2.13 1.38 5.02 5.83 8.55 8.92 10.63 11.57 11.09 10.70 12.16 12.44 13.25 14.74 10.17 7.98 9.03 7.81 7.95 7.02
22.87 28.92 23.20 24.14 24.20 22.71 20.13 19.02 19.95 21.89 24.27 24.62 23.40 21.84 24.08 23.69 22.88 17.55 13.53 1.53 -9.02 -10.31 -9.17 -7.93 -6.96 -5.28 -7.54 -8.17 -6.86 -5.07 -2.52 -1.95 -4.10 -1.48 1.85 2.77 0.27 2.55 4.55 5.68 7.57 8.45 7.89 7.97 8.91 10.49 11.33 9.95 9.57 9.85 10.13 8.59 8.37 7.28
17.04 17.81 13.08 10.13 17.67 18.57 15.36 17.80 15.90 17.01 19.47 18.38 19.02 15.92 11.57 13.93 12.28 9.32 -8.27 -8.97 -9.85 -6.54 -7.17 -9.38 -7.28 -5.97 -6.30 -3.72 -0.90 -1.35 -2.33 -0.34 -2.19 -2.30 -1.28 0.69 0.03 0.89 2.86 3.57 3.62 4.07 5.95 8.11 7.98 7.35 8.43 9.19 10.18 9.78 10.05 10.42 10.64 9.90
7.86 -5.69 -1.30 -2.51 -0.16 4.40 10.94 7.09 10.51 11.54 12.91 11.43 11.18 9.30 5.34 10.09 10.83 -0.29 -12.83 -11.92 -10.80 -8.06 -9.11 -9.49 -7.27 -5.44 -2.87 -0.25 -0.16 -1.45 -1.77 -0.34 0.94 -2.34 -1.89 -1.84 -1.29 0.96 2.21 1.85 2.21 1.88 2.52 7.05 7.78 8.96 9.61 10.22 11.20 11.62 11.86 11.83 11.83 11.24
2.03 -13.95 -9.48 -13.19 -7.41 -1.60 0.24 -1.01 -1.71 6.24 2.63 -1.71 2.07 3.13 2.87 4.12 1.29 -6.89 -13.43 -15.21 -12.76 -12.34 -11.23 -9.41 -8.18 -5.39 -6.92 -4.51 -0.26 -1.00 -0.41 -1.44 -1.54 -0.45 -2.59 -2.31 -1.37 3.14 3.86 1.72 1.67 1.58 3.21 5.40 6.58 6.39 6.43 8.22 10.43 11.89 12.37 12.74 12.07 11.72
-17.13 -16.27 -16.72 -21.62 -17.30 -11.68 -13.22 -6.91 -13.92 -14.15 -7.01 -2.76 -8.88 -9.74 -3.45 2.61 0.39 -13.66 -17.86 -16.16 -15.35 -13.48 -12.42 -12.33 -12.55 -10.84 -7.94 -6.03 -6.41 -5.34 -4.23 -1.75 -2.04 -3.54 -4.31 -3.16 -3.24 -4.15 -1.41 -1.94 -2.39 -1.29 1.63 2.21 4.10 6.63 7.86 9.10 9.76 10.34 10.28 11.14 12.19 11.38
-21.29 -22.64 -17.39 -11.91 -16.72 -14.55 -14.64 -13.64 -15.08 -16.16 -19.12 -19.06 -19.98 -17.20 -8.47 -8.95 -17.72 -18.94 -13.58 -13.14 -14.93 -12.61 -9.85 -9.42 -9.96 -10.97 -9.04 -7.68 -5.67 -4.30 -2.82 -0.97 -2.64 -3.46 -2.16 -1.86 -1.68 -1.48 -2.11 -2.31 -2.99 -1.00 0.99 1.47 2.66 3.51 2.80 4.22 7.45 7.97 7.55 7.64 8.08 9.38
-19.32 -18.01 -20.50 -17.03 -20.41 -18.64 -20.09 -20.34 -22.65 -26.66 -25.20 -20.37 -17.77 -22.81 -18.70 -20.94 -20.43 -17.33 -13.82 -10.73 -10.49 -10.05 -9.23 -6.45 -5.65 -5.55 -6.88 -7.07 -6.96 -6.73 -4.12 -3.60 -0.32 -0.15 -0.39 -0.58 -1.23 -1.87 -1.68 -1.05 0.26 5.37 1.59 2.27 4.99 4.52 5.37 6.58 6.72 7.26 7.36 6.60 6.30 7.37
-16.89 -14.52 -18.03 -21.19 -23.48 -20.33 -21.49 -22.64 -22.73 -19.04 -16.51 -18.89 -20.99 -21.41 -23.44 -17.37 -15.71 -16.65 -14.92 -12.09 -9.43 -9.31 -10.45 -10.08 -8.20 -6.30 -4.65 -5.71 -6.93 -7.98 -8.29 -8.51 -6.61 -3.27 -2.61 -4.07 -4.26 -4.46 -2.71 -1.45 -0.65 0.13 0.43 0.48 5.47 10.03 8.98 7.82 6.84 6.48 6.62 6.31 6.47 6.97
-19.30 -16.90 -21.75 -23.90 -22.17 -22.45 -19.96 -19.61 -20.13 -17.61 -14.03 -14.82 -15.76 -17.51 -17.82 -19.18 -16.75 -12.45 -15.32 -16.12 -15.28 -15.21 -14.06 -11.74 -10.57 -9.42 -9.73 -8.93 -9.11 -8.86 -8.69 -8.99 -8.95 -9.44 -8.09 -9.35 -9.53 -5.86 -3.72 -3.05 -2.36 -1.61 -0.70 0.14 1.30 3.03 7.70 5.84 7.23 5.38 4.57 4.19 3.76 2.36
-22.36 -23.91 -21.57 -21.90 -22.78 -20.16 -18.02 -14.55 -16.00 -16.15 -16.51 -17.38 -17.12 -19.80 -19.76 -18.52 -15.10 -14.15 -16.34 -16.29 -15.03 -15.33 -13.64 -12.92 -12.82 -12.57 -12.08 -12.49 -12.65 -12.07 -9.81 -8.41 -8.71 -8.03 -6.38 -4.98 -4.33 -3.49 -2.70 -1.91 -1.47 -1.53 -1.36 -0.47 0.31 1.15 1.98 1.91 1.47 0.21 -0.89 -1.86 -1.91 -2.31
-20.08 -22.91 -23.78 -22.67 -22.55 -19.38 -19.89 -20.91 -19.59 -19.27 -18.31 -17.70 -17.16 -16.25 -17.01 -16.99 -18.40 -15.70 -13.06 -13.71 -14.09 -16.02 -13.82 -13.55 -13.74 -13.75 -11.53 -10.00 -9.76 -9.69 -8.36 -9.69 -8.99 -8.15 -5.26 -3.09 -1.81 -1.39 -1.95 -2.07 -1.88 -1.76 -1.12 -0.53 -0.22 -0.09 -0.45 -1.18 -2.08 -3.15 -4.47 -5.44 -5.99 -6.40
-28.37 -26.72 -27.58 -26.24 -23.20 -24.34 -23.54 -21.98 -19.06 -19.19 -17.17 -18.41 -19.43 -18.28 -17.26 -18.11 -18.80 -14.06 -11.42 -12.45 -13.89 -15.28 -16.19 -15.45 -14.13 -12.02 -10.72 -10.12 -10.07 -10.10 -9.45 -9.43 -7.29 -3.41 -0.78 1.45 2.53 0.58 -2.30 -2.83 -2.77 -2.01 -1.95 -2.62 -3.01 -3.16 -4.07 -4.78 -5.78 -6.47 -7.13 -7.72 -8.30 -8.75
MSLP
1007.91 1008.50 1008.31 1008.23 1008.10 1008.08 1008.42 1008.59 1008.46 1008.58 1008.33 1008.87 1010.19 1011.10 1012.17 1013.50 1014.54 1015.68 1016.94 1017.57 1018.08 1019.27 1019.85 1020.41 1020.78 1021.44 1022.84 1023.44 1024.70 1026.08 1027.30 1027.95 1029.12 1030.62 1031.82 1032.58 1033.21 1032.92 1032.75 1032.00 1031.55 1031.13 1031.63 1032.15 1032.51 1030.52 1026.14 1023.29 1023.85 1023.18 1021.18 1021.17 1021.51 1022.45
1007.02 1007.40 1007.62 1007.32 1007.54 1007.40 1007.60 1007.87 1007.55 1007.61 1007.43 1007.87 1008.68 1010.01 1011.13 1012.40 1013.59 1014.83 1016.37 1017.44 1017.83 1019.16 1020.45 1020.50 1020.88 1020.75 1020.45 1020.95 1022.66 1024.75 1024.68 1025.04 1025.89 1028.40 1030.05 1031.13 1031.74 1032.09 1032.01 1031.62 1030.27 1029.65 1027.98 1028.39 1028.29 1025.22 1022.88 1022.10 1021.07 1020.61 1020.56 1020.81 1021.53 1022.14
1005.89 1006.43 1006.65 1006.67 1006.91 1007.07 1007.22 1007.17 1006.94 1006.96 1006.34 1006.68 1007.71 1008.83 1010.29 1011.45 1012.81 1013.64 1015.14 1016.83 1018.17 1019.83 1020.59 1021.10 1021.32 1021.25 1020.95 1021.22 1021.52 1022.99 1024.13 1024.01 1024.78 1025.11 1027.33 1028.98 1029.83 1029.65 1030.48 1029.39 1028.46 1027.47 1026.88 1027.26 1026.62 1022.74 1022.47 1021.83 1021.11 1021.06 1020.99 1020.84 1020.94 1021.39
1004.98 1005.28 1005.51 1005.85 1006.15 1006.74 1006.73 1006.47 1006.21 1005.77 1005.09 1005.59 1006.70 1007.89 1009.12 1010.54 1012.11 1013.58 1014.17 1015.39 1016.76 1018.86 1020.31 1020.71 1021.45 1021.46 1021.43 1021.67 1021.55 1022.07 1022.55 1023.37 1024.18 1025.15 1026.54 1027.77 1028.11 1027.31 1027.51 1027.09 1026.80 1025.74 1025.92 1025.47 1024.86 1022.49 1022.34 1021.16 1020.53 1020.09 1020.77 1021.09 1021.20 1021.41
1003.91 1004.04 1004.76 1004.97 1005.41 1005.75 1006.13 1005.97 1005.52 1005.23 1005.08 1004.66 1005.82 1007.01 1008.34 1009.73 1011.42 1013.24 1014.38 1014.73 1015.26 1016.44 1018.79 1020.58 1020.84 1021.52 1021.71 1021.63 1021.61 1022.04 1022.77 1023.50 1024.49 1025.84 1026.94 1027.27 1026.70 1026.82 1026.84 1026.58 1024.97 1023.80 1022.84 1023.05 1021.55 1020.26 1020.00 1019.35 1018.52 1019.15 1020.36 1020.59 1021.14 1021.62
1002.73 1003.36 1003.70 1003.92 1004.42 1004.95 1005.25 1005.16 1005.03 1004.80 1004.32 1003.60 1004.79 1006.03 1007.37 1009.01 1011.04 1013.02 1015.04 1015.35 1015.45 1016.01 1017.94 1020.73 1021.28 1021.48 1021.70 1021.64 1021.89 1022.32 1023.15 1023.91 1024.37 1025.14 1026.27 1026.15 1025.75 1025.63 1025.86 1024.99 1020.86 1020.14 1019.73 1018.96 1018.96 1019.38 1019.47 1019.40 1019.30 1019.37 1019.64 1020.01 1020.47 1021.02
1001.88 1002.44 1002.81 1002.98 1003.53 1004.01 1004.32 1004.50 1004.44 1004.31 1003.66 1002.76 1003.86 1005.23 1006.66 1008.26 1009.81 1010.79 1011.54 1012.35 1014.47 1015.63 1017.33 1020.46 1021.28 1021.63 1021.61 1021.96 1022.48 1023.04 1023.85 1024.60 1024.96 1025.45 1026.08 1026.20 1026.04 1025.40 1024.78 1022.23 1019.03 1018.62 1018.42 1018.51 1018.76 1019.40 1019.80 1019.94 1019.35 1019.29 1019.34 1019.52 1020.07 1020.47
1001.06 1001.78 1001.95 1002.08 1002.51 1003.13 1003.47 1003.78 1003.99 1003.74 1003.39 1002.13 1003.05 1004.71 1006.26 1007.83 1009.56 1010.33 1011.17 1012.07 1013.02 1015.36 1017.06 1018.86 1020.75 1021.50 1021.40 1021.94 1022.77 1023.04 1023.87 1024.66 1025.18 1025.84 1026.30 1026.29 1026.19 1025.64 1022.72 1018.35 1017.24 1017.39 1017.63 1017.83 1017.73 1018.16 1018.28 1018.92 1019.07 1019.64 1019.75 1020.02 1020.70 1020.83
1000.03 1000.79 1001.05 1001.29 1001.87 1002.26 1002.69 1003.14 1003.45 1003.30 1003.01 1001.44 1002.66 1004.58 1006.09 1007.33 1008.82 1010.60 1011.61 1012.10 1013.76 1015.22 1016.34 1017.59 1018.72 1020.27 1020.86 1021.36 1022.24 1023.25 1023.36 1024.64 1025.46 1025.84 1026.16 1026.09 1025.01 1022.27 1017.75 1016.22 1015.77 1015.72 1015.99 1015.79 1016.47 1017.23 1018.03 1018.61 1018.59 1018.95 1019.55 1019.90 1019.72 1020.05
999.45 999.93 1000.23 1000.69 1001.20 1001.60 1001.96 1002.37 1002.60 1002.89 1002.62 1001.80 1002.24 1003.93 1006.02 1007.60 1008.45 1010.30 1012.86 1013.20 1014.53 1015.15 1016.19 1017.64 1018.10 1019.41 1019.49 1020.67 1021.66 1022.54 1022.88 1023.79 1024.84 1024.78 1025.26 1024.86 1020.94 1017.25 1015.91 1014.40 1014.07 1013.80 1014.00 1015.15 1016.46 1017.20 1017.51 1017.58 1017.62 1017.70 1017.86 1018.08 1018.09 1018.36
998.84 999.28 999.72 1000.15 1000.55 1000.83 1001.28 1001.82 1002.48 1003.32 1002.34 999.79 1001.60 1004.52 1006.42 1007.29 1008.27 1010.21 1011.79 1013.05 1013.98 1014.58 1014.89 1016.23 1017.02 1018.12 1019.35 1019.34 1020.69 1021.21 1021.90 1023.08 1024.02 1024.15 1024.63 1023.02 1019.12 1015.90 1013.36 1011.69 1010.92 1011.83 1013.03 1013.21 1013.22 1013.52 1014.03 1014.37 1015.58 1016.44 1016.67 1016.87 1017.36 1017.78
998.35 998.85 999.37 999.82 1000.26 1000.39 1000.67 1001.21 1002.08 1002.32 1002.18 1000.06 1000.46 1004.20 1006.40 1007.19 1008.36 1010.29 1011.04 1011.89 1012.63 1012.42 1013.44 1015.17 1016.02 1017.05 1018.51 1018.79 1019.95 1021.33 1021.87 1022.94 1023.29 1023.61 1024.12 1021.51 1015.74 1012.56 1012.00 1011.45 1011.24 1011.61 1011.82 1012.12 1012.50 1012.97 1013.68 1014.12 1014.28 1014.85 1015.43 1015.96 1016.22 1016.69
997.82 998.32 998.70 999.06 999.52 999.77 1000.04 1000.48 1001.56 1001.58 999.48 999.35 1000.83 1003.26 1004.53 1006.29 1006.74 1008.83 1009.91 1010.25 1010.39 1011.23 1013.04 1013.79 1016.32 1017.82 1018.26 1018.44 1019.87 1020.87 1021.74 1022.63 1022.80 1023.26 1022.02 1017.36 1013.46 1012.13 1012.17 1011.82 1011.49 1011.47 1011.40 1011.53 1011.85 1012.24 1012.65 1013.10 1013.62 1014.04 1014.49 1014.66 1015.38 1016.09
997.13 997.62 997.93 997.94 998.95 999.66 1000.20 999.97 1000.34 1000.67 1000.81 1000.24 999.77 1002.24 1002.73 1005.36 1005.05 1004.37 1005.23 1006.76 1008.16 1008.51 1010.75 1011.66 1014.02 1015.75 1017.11 1018.42 1019.56 1020.79 1022.43 1022.57 1022.97 1022.49 1018.43 1015.46 1012.93 1012.67 1012.44 1012.13 1012.00 1011.90 1011.97 1011.99 1012.20 1012.11 1012.15 1012.59 1012.91 1013.31 1013.61 1014.09 1014.81 1015.48
996.54 997.01 997.32 997.44 997.41 998.55 999.57 999.20 999.64 1000.53 1000.13 997.85 998.54 1000.37 1001.79 1001.92 1003.22 1004.51 1004.54 1005.51 1006.92 1007.74 1009.55 1012.04 1013.38 1014.82 1017.14 1017.94 1019.22 1020.97 1022.18 1021.64 1020.37 1017.24 1015.46 1013.74 1013.81 1014.11 1013.59 1012.64 1012.48 1012.55 1012.67 1012.88 1012.79 1012.44 1012.11 1012.44 1012.91 1013.15 1013.54 1013.95 1014.37 1015.08
996.19 996.55 996.79 997.02 997.22 997.40 998.53 998.48 998.68 999.27 997.75 996.47 997.49 999.48 1001.05 1002.17 1004.23 1004.71 1005.16 1005.86 1006.45 1007.41 1009.23 1009.66 1012.61 1014.55 1015.87 1016.99 1018.81 1018.70 1019.22 1017.93 1015.39 1015.34 1014.33 1014.63 1015.01 1014.99 1014.48 1013.82 1013.42 1013.08 1013.05 1013.16 1012.89 1012.80 1012.73 1012.92 1013.17 1013.31 1013.87 1014.18 1014.35 1014.74
995.67 995.83 995.99 996.42 997.04 997.12 997.13 997.91 997.89 997.54 996.92 997.24 997.98 998.03 998.87 1000.29 1001.22 1002.41 1002.91 1004.25 1005.96 1005.74 1007.38 1009.35 1011.60 1013.49 1015.43 1016.52 1017.02 1016.90 1015.56 1013.80 1013.50 1014.66 1015.21 1015.44 1015.93 1015.80 1015.07 1014.61 1013.94 1013.36 1013.35 1013.53 1013.19 1012.83 1013.35 1013.62 1013.70 1013.86 1014.47 1014.75 1015.31 1015.16
995.56 995.61 995.33 995.99 997.06 997.59 997.53 997.12 997.10 997.18 997.10 997.77 998.75 999.65 999.30 999.28 1001.15 1002.43 1002.83 1003.56 1003.66 1005.56 1006.12 1008.15 1010.71 1013.29 1014.40 1015.22 1015.08 1014.14 1014.87 1014.52 1014.68 1015.25 1016.00 1016.30 1016.47 1016.21 1015.88 1015.26 1014.47 1013.95 1014.05 1013.95 1013.93 1013.35 1013.70 1014.37 1014.31 1014.28 1014.30 1014.83 1015.86 1016.18
994.70 994.81 995.21 995.69 996.59 996.21 995.45 996.15 996.27 997.49 998.77 998.88 999.49 1000.01 1000.12 1000.79 1001.07 1000.95 1002.15 1004.17 1004.70 1005.35 1006.81 1008.92 1011.65 1013.24 1013.97 1014.73 1015.79 1016.70 1016.70 1016.71 1017.17 1016.89 1016.60 1016.84 1016.72 1016.37 1015.99 1015.31 1014.81 1014.39 1014.44 1014.50 1014.17 1013.95 1013.90 1014.25 1014.57 1014.56 1014.73 1015.32 1015.97 1016.31
994.41 994.68 995.04 995.72 996.01 995.52 996.08 997.27 997.91 999.28 998.93 999.37 999.77 1000.72 1001.43 1001.44 1001.46 1002.36 1003.81 1005.26 1006.04 1007.49 1009.92 1012.60 1014.74 1015.82 1016.48 1017.49 1018.28 1018.59 1018.35 1018.38 1018.30 1017.94 1017.56 1017.39 1016.80 1016.26 1016.00 1015.91 1015.48 1014.78 1014.66 1014.75 1014.52 1014.14 1014.06 1014.33 1014.61 1014.76 1015.00 1015.56 1016.11 1016.58
994.72 995.63 995.77 995.96 996.49 997.32 998.24 998.67 997.95 997.82 998.34 999.57 1000.74 1001.25 1002.14 1002.34 1003.23 1004.86 1006.85 1007.97 1009.75 1014.23 1016.16 1018.03 1018.58 1018.95 1019.13 1019.46 1019.31 1019.63 1019.85 1020.34 1019.54 1018.73 1018.94 1018.25 1017.31 1016.96 1016.64 1016.44 1016.15 1015.01 1014.97 1015.25 1014.63 1014.22 1014.15 1014.27 1014.86 1015.35 1015.27 1015.62 1016.04 1016.36
997.26 997.01 997.05 996.93 997.33 998.22 999.29 1000.11 999.85 999.80 1000.18 1001.27 1001.90 1002.57 1004.03 1005.39 1006.89 1008.19 1009.33 1011.98 1016.90 1019.67 1020.64 1021.05 1021.03 1020.78 1020.55 1020.50 1020.71 1020.81 1020.43 1020.08 1019.46 1019.21 1019.18 1018.93 1018.66 1017.60 1017.27 1017.48 1016.88 1016.41 1015.80 1015.11 1014.66 1014.69 1014.74 1014.87 1015.22 1015.54 1015.70 1015.77 1015.86 1016.10
998.41 998.38 999.65 1000.40 1000.33 1000.89 1002.36 1001.39 1001.17 1001.13 1001.79 1003.34 1004.01 1005.38 1006.67 1007.70 1008.92 1009.99 1014.90 1018.78 1021.00 1022.22 1022.55 1022.44 1022.07 1021.43 1021.16 1021.11 1020.95 1020.92 1020.78 1020.35 1020.21 1020.21 1019.81 1020.14 1018.92 1017.74 1018.32 1018.17 1017.55 1017.42 1016.86 1015.93 1015.17 1015.12 1015.34 1015.35 1015.33 1015.72 1016.07 1016.29 1016.33 1016.38
1001.47 1004.53 1005.28 1005.43 1005.45 1005.25 1003.87 1004.28 1004.17 1004.33 1005.21 1006.48 1007.67 1009.15 1009.83 1010.13 1011.03 1013.89 1018.51 1021.36 1022.94 1023.49 1023.45 1023.22 1022.89 1022.09 1021.48 1021.50 1021.65 1021.47 1021.10 1020.86 1020.83 1020.67 1020.43 1020.11 1019.44 1019.19 1019.20 1018.60 1018.16 1018.58 1018.02 1017.10 1016.20 1015.45 1015.69 1015.75 1015.75 1015.73 1016.18 1016.60 1016.86 1016.78
1005.15 1011.86 1011.80 1011.23 1010.26 1008.53 1008.39 1008.38 1008.89 1008.98 1010.73 1011.08 1011.47 1012.47 1012.79 1012.85 1014.60 1018.02 1021.26 1023.81 1024.49 1024.70 1024.65 1024.41 1023.80 1023.08 1022.85 1022.22 1021.87 1021.84 1021.64 1021.58 1021.51 1021.25 1021.20 1020.82 1020.49 1019.72 1019.50 1019.32 1019.09 1019.51 1018.83 1018.02 1017.40 1016.86 1016.70 1016.44 1016.15 1016.23 1016.66 1016.86 1016.85 1017.29
1012.27 1016.43 1016.55 1016.48 1015.50 1014.43 1015.02 1014.95 1015.32 1015.58 1015.11 1015.22 1016.32 1016.30 1015.69 1015.76 1018.01 1021.97 1024.21 1025.42 1025.74 1025.73 1025.51 1025.42 1025.18 1024.43 1023.68 1023.38 1022.91 1022.54 1022.27 1021.96 1021.99 1021.90 1021.77 1021.23 1020.93 1020.77 1020.59 1020.48 1020.40 1020.10 1019.68 1018.96 1018.79 1018.49 1017.86 1017.39 1017.12 1016.88 1016.90 1016.99 1017.33 1017.79
1018.23 1019.75 1019.52 1019.85 1019.77 1018.80 1019.09 1019.59 1019.87 1019.78 1020.04 1021.07 1021.17 1020.03 1019.26 1019.87 1022.62 1024.93 1025.87 1026.42 1026.35 1026.04 1025.83 1025.61 1025.32 1024.91 1024.47 1023.96 1023.56 1023.28 1022.94 1022.69 1022.65 1022.57 1022.29 1022.01 1021.99 1021.99 1021.75 1021.75 1021.68 1021.42 1020.75 1020.25 1019.84 1019.33 1018.71 1018.32 1018.13 1018.09 1018.04 1017.87 1017.98 1018.21
1021.49 1022.12 1022.48 1022.76 1022.73 1023.10 1023.02 1023.24 1024.03 1025.08 1025.23 1025.45 1024.76 1024.22 1024.14 1025.37 1026.58 1027.20 1027.01 1026.86 1026.66 1026.25 1025.85 1025.59 1025.31 1025.02 1024.69 1024.53 1024.39 1024.02 1023.67 1023.66 1023.30 1022.90 1022.65 1022.63 1022.66 1022.65 1022.54 1022.39 1021.96 1021.35 1021.06 1020.52 1019.95 1019.66 1019.21 1018.76 1018.73 1018.86 1018.96 1018.99 1018.87 1018.91
1023.80 1023.89 1023.75 1024.17 1024.08 1024.47 1025.77 1026.54 1027.01 1027.18 1027.41 1027.22 1026.94 1026.94 1027.38 1027.61 1027.98 1028.13 1027.79 1027.43 1026.90 1026.55 1026.32 1025.87 1025.51 1025.22 1024.91 1024.83 1024.83 1024.87 1024.76 1024.41 1023.83 1023.29 1023.09 1023.14 1023.10 1023.22 1023.06 1022.55 1021.98 1021.67 1021.40 1021.02 1020.49 1020.21 1019.67 1019.32 1019.27 1019.38 1019.73 1019.87 1019.96 1020.13
1025.90 1025.53 1025.84 1026.59 1027.25 1028.48 1028.82 1028.73 1028.60 1028.48 1028.31 1028.22 1028.24 1028.41 1028.48 1028.54 1028.69 1028.39 1028.04 1027.67 1027.39 1027.15 1026.82 1026.43 1026.06 1025.67 1025.53 1025.35 1025.35 1025.32 1025.37 1025.31 1025.01 1024.60 1024.07 1024.00 1024.10 1023.94 1023.54 1023.14 1022.65 1022.16 1021.78 1021.39 1021.19 1020.70 1020.17 1020.17 1019.68 1019.99 1020.33 1020.65 1021.07 1021.26
1026.85 1026.46 1026.83 1027.66 1028.95 1029.38 1029.22 1028.92 1028.66 1028.52 1028.39 1028.31 1028.23 1028.28 1028.41 1028.26 1027.93 1027.85 1027.93 1027.84 1027.59 1027.27 1027.03 1026.88 1026.77 1026.59 1026.42 1026.36 1026.30 1026.21 1025.92 1025.78 1025.65 1025.24 1024.66 1024.23 1024.04 1023.78 1023.57 1023.37 1023.15 1022.66 1022.31 1021.79 1021.21 1020.92 1020.84 1021.09 1021.28 1021.45 1021.78 1022.23 1022.55 1022.61
1028.22 1028.83 1028.92 1029.43 1029.67 1029.12 1028.78 1028.66 1028.40 1028.16 1028.12 1027.98 1028.13 1027.95 1028.06 1028.08 1028.21 1028.20 1028.28 1028.18 1028.05 1027.95 1027.80 1027.69 1027.55 1027.42 1027.28 1027.13 1027.08 1027.01 1026.82 1026.54 1026.07 1025.55 1024.88 1024.31 1023.89 1023.64 1023.53 1023.38 1023.12 1022.79 1022.48 1022.37 1022.14 1022.07 1022.00 1022.02 1022.25 1022.61 1023.00 1023.40 1023.68 1023.83
1030.48 1030.35 1030.54 1030.99 1030.75 1030.38 1030.08 1029.69 1028.89 1028.66 1028.31 1028.47 1028.54 1028.57 1028.52 1028.53 1028.43 1028.37 1028.29 1028.23 1028.28 1028.31 1028.17 1027.96 1027.74 1027.58 1027.48 1027.40 1027.25 1027.14 1026.98 1026.68 1026.16 1025.63 1024.91 1024.22 1023.59 1023.62 1023.78 1023.57 1023.30 1022.98 1022.91 1022.92 1023.02 1023.08 1023.10 1023.41 1023.58 1023.80 1024.19 1024.47 1024.69 1024.93
Wind_Speed
22 20 22 16 18 20 20 17 18 21 28 30 32 34 38 41 40 21 4 7 4 2 3 6 8 9 5 5 7 5 6 2 3 2 4 5 4 7 3 4 8 10 10 6 3 1 11 7 5 8 7 1 7 8
23 23 24 16 13 16 18 20 18 19 28 29 29 34 36 39 38 29 3 6 4 4 1 2 2 3 3 7 9 5 1 6 7 5 1 4 2 3 4 5 1 4 9 8 12 10 3 14 3 6 4 5 6 9
26 26 24 17 12 14 18 16 21 21 28 30 31 35 37 40 38 31 6 8 5 3 2 1 4 1 3 4 4 7 2 5 4 3 5 3 4 5 5 8 2 6 5 3 4 5 14 9 13 4 5 5 6 7
28 25 25 22 15 16 17 14 19 17 25 30 32 33 36 38 38 34 6 8 6 4 3 2 1 2 3 3 4 3 2 5 6 3 3 4 3 4 4 3 4 6 7 7 7 10 3 11 13 13 9 6 5 6
27 25 27 24 18 14 16 15 18 21 25 31 31 33 35 37 36 22 3 8 6 7 5 3 3 1 1 5 7 5 5 4 3 2 3 4 2 4 0 2 6 8 11 8 11 10 6 7 9 12 13 14 11 9
26 26 26 23 20 16 14 16 18 22 29 32 31 32 34 35 33 8 2 3 4 3 7 4 3 3 2 6 8 7 3 2 2 4 4 2 2 3 4 5 7 13 10 9 12 6 7 4 5 3 15 14 12 13
25 25 25 23 20 17 16 16 17 20 24 31 31 31 32 33 18 12 9 7 17 4 5 5 2 0 6 4 2 3 3 1 2 2 2 3 1 3 3 9 5 10 15 12 5 4 6 4 6 7 8 6 6 5
25 26 26 21 19 17 15 15 17 21 21 19 31 30 30 34 22 9 2 25 17 7 4 6 3 3 4 3 3 2 3 2 3 2 0 2 1 1 9 12 8 11 7 8 13 15 9 2 1 2 2 5 7 11
24 26 24 20 19 18 17 14 15 16 20 18 30 29 11 10 5 4 20 18 5 5 7 4 9 7 5 3 4 2 2 2 1 2 4 4 3 13 10 15 14 14 13 10 5 11 7 10 9 7 7 6 10 13
23 24 22 20 19 16 16 14 13 15 23 17 18 5 5 1 40 21 5 3 3 1 3 3 3 5 6 3 3 4 2 3 4 6 4 5 11 5 7 18 12 15 17 10 5 6 5 9 17 14 16 12 15 14
22 21 20 20 18 18 18 13 10 12 20 6 6 4 7 23 6 2 6 4 4 5 5 4 4 8 3 5 4 1 4 4 4 4 5 4 9 7 22 29 30 20 10 17 18 10 12 10 12 14 11 14 11 9
19 17 15 17 19 18 17 14 7 2 4 4 14 10 4 4 4 7 5 6 5 10 5 8 5 4 3 3 4 3 4 2 5 4 2 8 8 16 4 9 11 8 15 18 16 17 8 9 9 13 12 12 14 13
19 18 18 17 16 19 14 13 10 6 15 3 6 8 7 4 6 11 13 7 7 8 7 8 7 4 4 4 5 3 5 4 5 2 8 11 8 8 4 5 6 7 7 9 13 12 10 11 8 11 12 9 11 11
21 20 19 20 16 17 15 16 14 11 7 5 8 9 7 8 9 8 6 9 6 8 15 12 6 5 3 4 4 5 2 4 3 5 14 5 11 6 4 3 1 3 5 8 9 9 13 12 13 10 11 9 11 13
20 19 20 22 19 20 16 17 19 9 6 4 7 7 8 2 5 4 5 7 3 14 15 6 6 5 3 6 3 6 3 5 10 11 5 4 3 4 4 4 3 2 3 6 4 6 8 8 9 11 8 8 9 7
18 20 15 19 21 19 16 15 4 1 5 2 4 7 6 7 2 3 8 13 12 16 9 3 6 5 4 7 6 9 10 12 7 6 3 2 3 4 5 6 5 3 3 5 4 3 3 6 9 8 6 5 7 10
24 5 15 21 16 18 16 5 5 6 3 4 2 1 5 8 11 6 11 12 16 16 7 6 8 8 7 5 7 8 11 5 4 3 2 1 3 6 7 7 7 6 4 5 3 2 3 2 3 4 7 4 3 2
3 6 19 21 14 5 2 3 2 2 4 3 1 4 2 5 14 11 7 16 13 7 5 6 9 5 8 10 6 4 3 1 1 2 1 1 3 5 5 6 6 4 5 4 4 2 3 2 4 4 3 6 5 3
7 5 20 16 9 3 1 3 3 5 1 2 2 2 3 7 3 9 14 15 2 4 9 3 5 6 6 3 2 2 1 3 1 3 2 2 3 4 6 5 4 3 3 3 2 1 2 1 2 2 3 4 3 2
11 13 11 6 7 2 5 4 3 4 2 2 3 4 3 3 8 11 12 3 4 3 5 4 2 2 3 2 0 1 1 2 1 3 2 2 2 6 5 4 3 2 2 3 1 2 2 2 2 2 3 3 3 3
10 3 2 2 2 4 4 1 3 2 4 5 1 3 5 7 9 12 4 4 7 5 4 2 2 2 2 1 2 2 2 2 2 3 2 4 6 5 4 5 5 3 2 2 1 2 1 2 1 2 3 3 2 3
4 11 3 5 4 4 5 3 1 1 4 3 4 4 5 6 4 3 2 9 5 3 2 2 2 3 2 3 2 1 2 3 2 1 2 4 4 3 5 5 5 4 3 2 2 2 2 2 2 2 2 3 3 4
9 8 6 7 4 5 1 4 4 6 6 3 3 5 5 3 2 3 9 4 2 2 2 2 4 3 1 2 2 4 5 5 3 3 3 4 3 4 3 4 5 5 5 5 2 2 2 2 3 3 3 2 3 4
14 11 10 7 10 3 4 7 4 5 5 5 4 4 4 3 2 6 5 2 2 3 5 7 5 3 1 1 3 4 6 5 3 2 5 4 3 5 4 3 5 5 4 4 3 4 3 3 4 3 3 3 3 4
10 13 8 10 6 7 9 8 10 6 5 5 5 4 4 4 5 5 3 2 3 4 5 6 5 5 3 2 2 4 5 5 5 4 5 4 3 1 2 3 4 5 7 6 6 5 3 2 3 4 3 3 4 4
14 8 9 9 8 8 6 5 7 7 5 5 5 4 4 2 5 3 2 3 2 2 4 5 5 5 3 4 4 5 6 5 4 1 3 5 4 3 3 4 4 5 8 7 5 5 4 4 4 5 5 6 5 4
10 8 6 4 3 4 6 4 4 6 8 8 6 7 4 5 3 1 2 1 2 2 4 4 3 2 4 4 3 4 5 5 4 2 2 4 4 4 4 3 3 3 5 6 5 4 3 4 4 4 4 5 5 4
4 5 7 8 6 4 3 5 7 7 5 5 3 7 4 4 1 3 2 3 4 5 4 3 2 2 2 2 3 4 3 4 4 2 1 3 4 4 5 4 4 9 5 5 5 4 3 4 4 4 4 4 4 5
6 6 3 6 6 8 9 6 4 2 2 2 2 3 1 0 1 2 3 4 5 3 2 3 3 4 1 2 3 4 4 4 4 2 2 2 3 4 6 5 5 4 4 5 8 7 1 3 4 4 5 4 4 5
5 3 4 3 6 5 2 1 1 2 1 1 2 2 0 1 3 2 2 3 3 2 2 2 3 3 3 4 3 4 4 5 5 4 3 3 2 4 5 5 5 5 4 4 4 4 6 5 6 5 6 5 5 5
3 3 5 5 5 2 3 3 2 2 0 1 0 2 1 1 2 1 2 2 2 2 3 3 3 4 4 5 4 4 3 4 6 6 5 3 3 3 4 4 4 4 4 4 4 4 4 5 5 7 7 8 8 7
5 6 3 5 2 3 2 2 1 2 1 2 3 2 2 1 2 2 2 3 2 2 3 3 3 3 3 2 2 2 4 4 4 5 7 5 4 2 3 3 3 4 4 4 4 4 5 6 6 7 7 8 8 8
4 4 4 4 6 6 5 6 3 3 3 3 3 2 1 0 1 1 1 1 1 0 2 2 2 2 3 3 3 4 5 4 6 8 9 9 4 5 3 3 3 3 4 5 5 5 7 9 8 9 8 8 9 9
Wind_Direction
242 263 258 255 259 257 253 279 264 265 218 201 197 193 191 189 187 182 154 180 155 142 163 189 168 144 126 148 153 160 86 311 56 137 152 208 151 216 103 178 177 167 160 199 130 141 283 152 79 177 210 118 165 175
238 249 250 245 280 286 263 264 258 275 223 198 193 195 192 189 188 186 129 162 96 81 87 64 20 338 81 136 127 198 179 162 160 111 236 99 151 127 163 242 164 239 188 180 191 214 245 202 194 218 179 150 184 171
243 243 246 236 258 293 278 277 278 279 232 198 194 190 189 189 190 187 153 146 86 117 55 62 192 242 97 83 111 133 272 180 190 167 153 176 184 132 168 237 166 239 170 212 45 267 229 231 245 264 228 213 177 172
240 236 244 238 235 255 287 278 275 316 223 198 193 188 185 188 190 189 156 164 133 102 161 185 307 143 122 170 119 104 139 82 105 107 127 148 166 169 207 207 190 191 133 182 265 271 301 250 232 223 215 225 194 170
242 235 238 232 236 251 269 280 291 310 309 197 191 187 186 187 188 185 103 183 164 166 159 136 92 105 158 148 111 102 134 132 138 97 103 218 162 121 310 57 230 191 182 175 224 210 181 237 221 193 191 201 200 180
231 233 233 226 226 240 260 282 295 304 308 197 188 184 183 183 178 146 85 257 146 123 114 160 14 150 141 113 102 95 68 48 104 144 205 254 266 130 170 223 244 205 206 193 239 191 201 264 273 231 199 201 190 192
229 227 232 221 221 236 253 269 289 298 307 196 184 182 180 177 164 177 178 157 143 127 101 101 150 117 125 101 91 102 76 68 114 137 216 166 237 137 173 233 193 214 226 228 193 112 295 202 235 199 199 193 174 185
221 223 228 222 223 228 245 255 277 287 284 239 176 176 175 172 176 180 85 155 138 92 91 140 127 148 191 138 112 118 114 55 28 166 77 188 26 104 251 242 231 217 216 238 217 208 224 157 105 190 137 128 169 201
218 220 227 222 230 228 240 252 267 287 281 218 164 161 158 177 129 123 119 105 64 101 160 138 150 179 164 116 115 87 121 136 108 244 235 110 215 228 221 227 200 209 201 215 209 207 197 213 221 196 174 201 191 207
219 217 219 220 224 230 242 244 270 280 283 247 151 104 128 227 114 106 41 92 109 137 98 145 118 147 132 154 130 121 158 170 198 229 119 211 252 235 229 244 225 223 216 154 136 248 198 237 218 205 205 200 206 197
208 210 214 220 228 228 239 238 258 283 285 214 124 94 128 131 78 86 119 153 163 158 159 142 154 138 223 130 132 220 156 152 205 241 168 257 263 235 219 233 235 225 203 207 221 233 197 189 199 212 205 205 198 189
202 205 217 233 236 237 245 242 237 145 255 272 107 102 99 132 105 141 152 139 190 203 142 134 147 114 131 117 113 181 130 144 214 147 202 263 248 241 284 255 256 227 208 219 214 228 202 203 193 197 210 204 201 202
205 215 223 236 240 239 250 248 213 266 156 92 99 140 148 168 122 164 177 198 173 138 164 146 131 148 144 80 87 130 152 184 123 143 230 234 259 260 259 269 257 232 227 225 214 215 211 211 187 191 201 204 193 185
215 219 230 237 240 240 235 247 214 212 231 229 135 142 159 175 204 182 159 144 182 133 144 134 106 123 112 109 134 135 60 130 168 233 235 239 236 286 304 260 184 299 248 234 227 205 212 210 215 204 203 177 181 195
220 233 238 242 243 248 242 227 233 196 240 186 123 159 186 163 51 134 109 93 89 138 138 111 82 97 129 110 90 120 105 229 215 229 231 240 280 291 302 345 342 336 299 274 234 212 210 200 204 216 194 176 185 165
235 240 234 225 239 240 224 249 219 167 269 211 107 111 124 85 90 96 121 121 147 141 145 73 125 123 131 127 148 205 160 220 236 216 254 341 314 302 309 314 296 285 286 270 249 243 236 205 208 211 158 186 175 167
223 215 218 228 218 221 234 230 175 197 243 172 178 139 109 101 143 131 133 134 165 150 152 137 120 172 119 166 191 184 216 205 199 198 185 101 313 308 317 309 312 329 326 297 272 196 242 259 124 124 177 208 174 168
189 216 201 188 183 156 205 199 162 105 51 27 112 164 40 98 129 138 130 156 150 163 135 148 131 152 172 175 225 227 225 345 71 109 206 267 319 315 294 294 314 332 314 298 287 148 136 190 180 205 149 134 119 110
212 173 166 159 182 234 125 42 53 73 286 162 116 69 72 118 46 117 142 155 91 112 115 74 149 182 194 180 170 240 257 56 345 314 314 297 299 316 318 313 292 354 347 310 264 222 142 161 244 117 117 140 161 131
127 111 64 12 204 224 108 82 83 182 145 111 80 40 87 124 125 128 125 35 84 106 60 38 49 23 36 65 28 257 333 335 333 346 351 299 332 353 350 330 325 331 347 336 3 105 116 75 33 90 124 121 131 168
62 76 72 39 62 55 71 315 66 44 67 58 79 58 66 74 106 137 85 343 62 33 57 357 12 338 6 52 45 14 345 312 252 130 262 310 336 335 341 331 316 345 36 264 312 52 41 53 112 169 140 129 114 126
9 8 49 333 83 65 64 6 125 167 76 94 57 35 87 96 101 52 93 56 51 46 27 325 314 316 7 25 334 308 300 296 326 325 295 307 306 355 7 348 340 346 337 3 28 56 66 75 110 113 121 130 122 123
9 24 40 12 70 56 29 334 61 9 80 61 43 58 30 67 42 62 71 60 86 4 309 303 303 281 351 351 47 27 7 8 22 355 20 301 318 30 4 350 7 353 345 5 23 57 60 81 94 86 90 100 118 116
33 42 21 31 8 40 335 25 16 49 57 46 61 73 18 48 58 52 79 55 5 351 1 346 323 326 99 63 41 27 14 356 347 22 15 350 7 24 0 3 18 345 330 301 345 50 50 55 79 79 102 114 117 116
68 7 9 1 355 18 33 26 7 30 71 22 74 45 11 338 76 60 81 16 353 4 1 349 349 8 7 357 27 13 29 16 355 357 7 0 322 300 16 22 41 16 354 4 5 11 14 19 88 103 92 103 113 118
66 18 35 357 4 29 358 53 30 15 5 56 36 323 313 56 68 76 21 334 316 342 5 360 345 337 3 15 344 359 346 337 309 342 354 5 13 9 14 20 0 349 357 358 348 347 6 14 41 82 93 86 99 103
47 341 354 54 4 1 49 50 39 54 50 24 349 341 353 71 58 1 339 17 319 336 317 305 303 308 315 329 337 344 334 3 28 60 17 27 28 24 30 40 24 324 323 338 346 354 12 25 46 55 66 62 59 64
71 37 36 355 45 7 91 58 39 31 360 329 288 20 57 36 24 308 300 336 324 313 307 293 286 306 336 357 342 338 341 340 290 244 187 110 70 41 18 1 355 6 345 338 335 340 9 44 53 51 61 69 73 64
37 347 24 26 30 38 38 37 24 360 323 323 7 41 60 160 265 285 297 319 311 313 331 349 351 338 36 72 43 26 9 356 355 350 54 26 357 8 349 344 356 359 351 344 344 346 12 91 78 68 62 64 64 66
342 12 76 62 63 56 327 144 254 272 278 181 150 124 129 276 246 255 313 325 350 343 321 352 350 7 16 10 11 37 28 15 18 17 34 37 344 310 321 332 340 347 344 350 344 348 24 32 61 56 58 56 55 59
298 10 76 60 93 205 226 241 230 210 197 75 75 119 187 279 312 302 340 304 326 353 17 17 30 21 28 23 13 359 360 20 352 346 351 314 293 306 321 328 330 335 332 343 6 23 47 55 62 73 71 68 63 64
11 30 68 62 1 291 22 36 320 92 13 53 18 33 11 359 343 312 338 343 3 13 12 12 17 23 355 348 1 336 318 305 323 318 319 317 315 328 343 342 339 342 354 9 20 36 64 78 81 79 80 75 69 64
35 23 35 53 10 6 350 1 13 25 32 39 10 344 306 302 306 287 211 125 123 2 329 302 291 303 322 333 340 337 338 313 320 342 333 338 2 36 17 355 356 17 51 58 55 60 67 73 75 78 78 79 79 77